Location: ??????????
(44.2167°N, 135.5333°E)
Time: 14:00:51
(UTC+00:00)

SL-4 R/B - Pass Details

Date: 15 June 2025
Orbit: 393 x 546 km, 51.6° (Epoch: 15 July)

Event Time Altitude Azimuth Distance (km) Brightness Sun altitude
Rises 13:59:05 0° 251° (WSW) 2,705 5.5 -21.1°
Reaches altitude 10° 14:01:22 10° 255° (WSW) 1,807 4.6 -21.2°
Maximum altitude 14:05:26 57° 335° (NNW) 635 2.6 -21.4°
Drops below altitude 10° 14:09:24 10° 54° (NE) 1,761 4.9 -21.5°
Sets 14:11:37 0° 59° (ENE) 2,628 5.7 -21.6°
